Overview Statistics Trail Chart Weather Telemetry Raw packets
 

This is the latest recevied weather packets stored in our database for station/object WX4SGA. If no packets are shown the sender has not sent any weather packets the latest 10 day(s).

<< 24 25 26 27 28 29 30 >>
Time Temp. Humidity Pressure Rain* Wind** Luminosity Snow
1788450096 28.89° C 79% 1017.6 hPa 0 mm - 753 W/m² -
1788449792 30° C 79% 1018 hPa 0 mm - 78 W/m² -
1788449487 28.89° C 80% 1018 hPa 0 mm - 767 W/m² -
1788449184 29.44° C 78% 1017.6 hPa 0 mm - 669 W/m² -
1788448880 29.44° C 80% 1017.6 hPa 0 mm - 172 W/m² -
1788448579 30° C 78% 1017.6 hPa 0 mm - 686 W/m² -
1788448274 30° C 79% 1018 hPa 0 mm - 778 W/m² -
1788447974 30° C 79% 1018 hPa 0 mm - 658 W/m² -
1788447669 30° C 81% 1018 hPa 0 mm - 697 W/m² -
1788447368 28.89° C 81% 1018 hPa 0 mm - 648 W/m² -
1788447064 28.33° C 85% 1018 hPa 0 mm - 654 W/m² -
1788446762 28.33° C 86% 1018 hPa 0 mm - 217 W/m² -
1788446459 28.33° C 86% 1018 hPa 0 mm - 415 W/m² -
1788446155 28.89° C 86% 1018 hPa 0 mm - 640 W/m² -
1788445850 27.78° C 88% 1018 hPa 0 mm - 647 W/m² -
1788445545 27.22° C 91% 1017.6 hPa 0 mm - 189 W/m² -
1788445243 27.22° C 91% 1018 hPa 0 mm - 106 W/m² -
1788444938 27.22° C 91% 1017.6 hPa 0 mm - 210 W/m² -
1788444633 27.22° C 91% 1017.6 hPa 0 mm - 264 W/m² -
1788444328 27.22° C 91% 1017.6 hPa 0 mm - 331 W/m² -
1788444024 26.67° C 93% 1018 hPa 0 mm - 205 W/m² -
1788443719 27.22° C 93% 1018 hPa 0 mm - 167 W/m² -
1788443419 26.67° C 94% 1018 hPa 0 mm - 135 W/m² -
1788443119 26.11° C 97% 1018 hPa 0 mm - 447 W/m² -
1788442815 25.56° C 99% 1018 hPa 0 mm - 162 W/m² -

* Rain latest hour (hover to see other rain measurements)
** Current wind speed in m/s (hover to see current wind gust speed)